This is the latest recevied weather packets stored in our database for station/object HS6PNA-2. If no packets are shown the sender has not sent any weather packets the latest 10 day(s).
| Time | Temp. | Humidity | Pressure | Rain* | Wind** | Luminosity | Snow |
|---|---|---|---|---|---|---|---|
| 1777880166 | 32.78° C | 40% | 1002 hPa | - | - | 0 W/m² | - |
| 1777879241 | 32.22° C | 32% | 1003 hPa | - | - | 0 W/m² | - |
| 1777878317 | 32.22° C | 32% | 1003 hPa | - | - | 0 W/m² | - |
| 1777877392 | 32.78° C | 33% | 1003 hPa | - | - | 0 W/m² | - |
| 1777876468 | 33.33° C | 32% | 1004 hPa | - | - | 0 W/m² | - |
| 1777875543 | 33.89° C | 33% | 1003 hPa | - | - | 0 W/m² | - |
| 1777874619 | 34.44° C | 37% | 1004 hPa | - | - | 0 W/m² | - |
| 1777873694 | 36.11° C | 42% | 1004 hPa | - | - | 0 W/m² | - |
| 1777872770 | 35° C | 43% | 1004 hPa | - | - | 0 W/m² | - |
| 1777871845 | 33.89° C | 42% | 1004 hPa | - | - | 0 W/m² | - |
| 1777870921 | 33.33° C | 35% | 1005 hPa | - | - | 0 W/m² | - |
| 1777869996 | 32.22° C | 36% | 1005 hPa | - | - | 0 W/m² | - |
| 1777869072 | 33.89° C | 47% | 1005 hPa | - | - | 0 W/m² | - |
| 1777868147 | 36.11° C | 46% | 1005 hPa | - | - | 0 W/m² | - |
| 1777867223 | 36.11° C | 47% | 1005 hPa | - | - | 0 W/m² | - |
| 1777866298 | 36.11° C | 47% | 1005 hPa | - | - | 0 W/m² | - |
| 1777865374 | 35.56° C | 49% | 1006 hPa | - | - | 0 W/m² | - |
| 1777864449 | 35° C | 50% | 1006 hPa | - | - | 0 W/m² | - |
| 1777863525 | 34.44° C | 51% | 1006 hPa | - | - | 0 W/m² | - |
| 1777862600 | 34.44° C | 51% | 1006 hPa | - | - | 0 W/m² | - |
| 1777861676 | 34.44° C | 51% | 1006 hPa | - | - | 0 W/m² | - |
| 1777860751 | 34.44° C | 52% | 1006 hPa | - | - | 0 W/m² | - |
| 1777859827 | 34.44° C | 51% | 1006 hPa | - | - | 0 W/m² | - |
| 1777858902 | 34.44° C | 52% | 1006 hPa | - | - | 0 W/m² | - |
| 1777857978 | 33.89° C | 54% | 1006 hPa | - | - | 0 W/m² | - |
* Rain since midnight (hover to see other rain measurements)
** Current wind speed in m/s (hover to see current wind gust speed)